Location: Eppenbrunn
(49.1158°N, 7.5601°E)
Time: 23:36:49
(UTC+00:00)

STARLINK-1210 - Pass Details

Date: 09 April 2020
Orbit: 548 x 551 km, 53.0° (Epoch: 03 June)

Event Time Altitude Azimuth Distance (km) Brightness Sun altitude
Rises 20:03:29 0° 291° (WNW) 2,714 8.7 -17.1°
Reaches altitude 10° 20:06:03 10° 276° (W) 1,817 7.2 -17.5°
Maximum altitude 20:09:19 23° 224° (SW) 1,188 5.4 -17.9°
Enters shadow 20:10:58 18° 190° (S) 1,374 5.4 -18.1°
